Location: Hermaringen
(48.5952°N, 10.2585°E)
Time: 09:29:32
(UTC+00:00)

Vanguard 3 - Pass Details

Date: 23 February 2026
Orbit: 507 x 3205 km, 33.4° (Epoch: 6 March)

Event Time Altitude Azimuth Distance (km) Brightness Sun altitude
Rises 17:43:52 0° 261° (W) 4,971 13.5 -9.1°
Reaches altitude 10° 17:49:02 10° 244° (WSW) 3,394 11.5 -10.0°
Maximum altitude 17:53:46 17° 208° (SSW) 2,380 9.9 -10.8°
Drops below altitude 10° 17:57:23 10° 169° (S) 2,447 9.5 -11.3°
Sets 18:00:16 0° 147° (SSE) 3,081 9.8 -11.8°
